This is the latest recevied weather packets stored in our database for station/object KD0MAC. If no packets are shown the sender has not sent any weather packets the latest 10 day(s).
| Time | Temp. | Humidity | Pressure | Rain* | Wind** | Luminosity | Snow |
|---|---|---|---|---|---|---|---|
| 1787853608 | 31.67° C | 56% | 1021 hPa | 0 mm | - | 526 W/m² | - |
| 1787853308 | 31.11° C | 53% | 1021 hPa | 0 mm | - | 523 W/m² | - |
| 1787853009 | 30.56° C | 54% | 1021 hPa | 0 mm | - | 522 W/m² | - |
| 1787852709 | 30.56° C | 55% | 1021 hPa | 0 mm | - | 516 W/m² | - |
| 1787852408 | 30° C | 53% | 1021 hPa | 0 mm | - | 515 W/m² | - |
| 1787852115 | 30° C | 55% | 1021.3 hPa | 0 mm | - | 536 W/m² | - |
| 1787851809 | 30.56° C | 55% | 1021.3 hPa | 0 mm | - | 531 W/m² | - |
| 1787851508 | 30.56° C | 55% | 1021.3 hPa | 0 mm | - | 525 W/m² | - |
| 1787851209 | 30° C | 56% | 1021.3 hPa | 0 mm | - | 518 W/m² | - |
| 1787850909 | 29.44° C | 56% | 1021.3 hPa | 0 mm | - | 517 W/m² | - |
| 1787850609 | 29.44° C | 54% | 1021.3 hPa | 0 mm | - | 509 W/m² | - |
| 1787850309 | 29.44° C | 55% | 1021.3 hPa | 0 mm | - | 501 W/m² | - |
| 1787850008 | 28.89° C | 57% | 1021.7 hPa | 0 mm | - | 496 W/m² | - |
| 1787849708 | 29.44° C | 56% | 1021.7 hPa | 0 mm | - | 487 W/m² | - |
| 1787849409 | 29.44° C | 55% | 1021.7 hPa | 0 mm | - | 484 W/m² | - |
| 1787849111 | 29.44° C | 55% | 1021.7 hPa | 0 mm | - | 474 W/m² | - |
| 1787848809 | 28.89° C | 58% | 1021.7 hPa | 0 mm | - | 463 W/m² | - |
| 1787848509 | 28.33° C | 60% | 1021.7 hPa | 0 mm | - | 455 W/m² | - |
| 1787848210 | 28.33° C | 59% | 1021.7 hPa | 0 mm | - | 446 W/m² | - |
| 1787847912 | 28.33° C | 58% | 1021.7 hPa | 0 mm | - | 438 W/m² | - |
| 1787847615 | 28.33° C | 60% | 1021.7 hPa | 0 mm | - | 427 W/m² | - |
| 1787847309 | 27.78° C | 61% | 1021.7 hPa | 0 mm | - | 415 W/m² | - |
| 1787847009 | 27.78° C | 62% | 1021.7 hPa | 0 mm | - | 407 W/m² | - |
| 1787846709 | 27.78° C | 64% | 1021.7 hPa | 0 mm | - | 398 W/m² | - |
| 1787846411 | 27.22° C | 65% | 1021.7 hPa | 0 mm | - | 389 W/m² | - |
* Rain latest hour (hover to see other rain measurements)
** Current wind speed in m/s (hover to see current wind gust speed)